| time (UTC) | temp F | wind direction | speed MPH | gust MPH | rain 1hr in | rain 24hr in | rain mn in | humidity % | barometer mb |
| 20260505163016 | 56 | 337 | 4.0 | 9.0 | 0.00 | 0.74 | 0.10 | 48 | 1009.2 |
| 20260505162018 | 56 | 351 | 2.0 | 7.0 | 0.00 | 0.74 | 0.10 | 49 | 1009.2 |
| 20260505161016 | 56 | 324 | 3.0 | 8.0 | 0.00 | 0.74 | 0.10 | 51 | 1009.1 |
| 20260505153016 | 52 | 331 | 1.0 | 4.0 | 0.00 | 0.74 | 0.10 | 67 | 1009.1 |
| 20260505152017 | 52 | 323 | 2.0 | 5.0 | 0.00 | 0.74 | 0.10 | 68 | 1009.0 |
| 20260505151017 | 51 | 45 | 1.0 | 3.0 | 0.00 | 0.74 | 0.10 | 74 | 1009.1 |
| 20260505124019 | 48 | 339 | 3.0 | 6.0 | 0.05 | 0.69 | 0.05 | 73 | 1008.4 |
| 20260505123040 | 50 | 9 | 3.0 | 7.0 | 0.02 | 0.66 | 0.02 | 69 | 1008.2 |
| 20260505122020 | 51 | 342 | 2.0 | 6.0 | 0.00 | 0.64 | 0.00 | 67 | 1008.5 |
| 20260505121019 | 51 | 334 | 3.0 | 7.0 | 0.00 | 0.64 | 0.00 | 64 | 1008.4 |
| 20260505120040 | 51 | 341 | 3.0 | 6.0 | 0.00 | 0.64 | 0.00 | 63 | 1008.3 |
| 20260505115107 | 51 | 327 | 3.0 | 5.0 | 0.00 | 0.64 | 0.00 | 66 | 1008.3 |
| 20260505114028 | 51 | 329 | 2.0 | 4.0 | 0.00 | 0.64 | 0.00 | 69 | 1007.5 |
| 20260505113029 | 52 | 318 | 1.0 | 3.0 | 0.00 | 0.64 | 0.00 | 71 | 1007.1 |
| 20260505112026 | 52 | 312 | 1.0 | 3.0 | 0.00 | 0.64 | 0.00 | 71 | 1007.0 |
| 20260505111027 | 51 | 351 | 1.0 | 3.0 | 0.00 | 0.64 | 0.00 | 71 | 1006.8 |
| 20260505110107 | 51 | 326 | 1.0 | 3.0 | 0.00 | 0.64 | 0.00 | 71 | 1006.5 |
| 20260505102028 | 53 | 316 | 0.0 | 2.0 | 0.00 | 0.64 | 0.00 | 69 | 1006.2 |
| 20260505101027 | 53 | 317 | 2.0 | 3.0 | 0.00 | 0.64 | 0.00 | 66 | 1006.5 |
| 20260505100028 | 53 | 318 | 1.0 | 3.0 | 0.00 | 0.64 | 0.00 | 65 | 1006.0 |
| 20260505095028 | 53 | 327 | 1.0 | 3.0 | 0.00 | 0.64 | 0.00 | 65 | 1006.0 |
| 20260505094049 | 54 | 317 | 2.0 | 3.0 | 0.00 | 0.64 | 0.00 | 64 | 1006.1 |
| 20260505093028 | 54 | 318 | 0.0 | 2.0 | 0.00 | 0.64 | 0.00 | 63 | 1006.1 |
| 20260505092048 | 55 | 313 | 2.0 | 3.0 | 0.00 | 0.64 | 0.00 | 60 | 1006.2 |
| 20260505091029 | 55 | 313 | 2.0 | 3.0 | 0.00 | 0.64 | 0.00 | 60 | 1006.0 |
| 20260505090029 | 55 | 306 | 2.0 | 4.0 | 0.00 | 0.64 | 0.00 | 59 | 1005.8 |
| 20260505085029 | 55 | 310 | 3.0 | 5.0 | 0.00 | 0.64 | 0.00 | 60 | 1005.7 |
| 20260505084029 | 54 | 310 | 3.0 | 4.0 | 0.00 | 0.64 | 0.00 | 62 | 1005.2 |
| 20260505083029 | 54 | 324 | 1.0 | 2.0 | 0.00 | 0.64 | 0.00 | 65 | 1004.8 |
| 20260505082029 | 55 | 0.0 | 0.0 | 0.00 | 0.64 | 0.00 | 63 | 1004.7 | |
| 20260505081030 | 55 | 0.0 | 0.0 | 0.00 | 0.64 | 0.00 | 62 | 1004.6 | |
| 20260505080030 | 55 | 308 | 0.0 | 2.0 | 0.00 | 0.64 | 0.00 | 59 | 1004.1 |
| 20260505075030 | 55 | 0.0 | 0.0 | 0.00 | 0.64 | 0.00 | 59 | 1003.9 | |
| 20260505074015 | 54 | 320 | 0.0 | 1.0 | 0.00 | 0.64 | 0.00 | 61 | 1003.7 |
| 20260505073030 | 55 | 324 | 0.0 | 2.0 | 0.00 | 0.64 | 0.00 | 61 | 1003.6 |
| 20260505072015 | 55 | 0.0 | 0.0 | 0.00 | 0.64 | 0.00 | 59 | 1003.5 | |
| 20260505071016 | 56 | 0.0 | 0.0 | 0.00 | 0.64 | 0.00 | 58 | 1003.3 | |
| 20260505070016 | 56 | 330 | 0.0 | 4.0 | 0.00 | 0.64 | 0.00 | 57 | 1003.3 |
| 20260505065017 | 56 | 316 | 1.0 | 2.0 | 0.00 | 0.64 | 0.00 | 57 | 1003.1 |
| 20260505064017 | 57 | 314 | 2.0 | 3.0 | 0.00 | 0.64 | 0.00 | 57 | 1003.0 |
| 20260505063017 | 57 | 303 | 2.0 | 4.0 | 0.00 | 0.64 | 0.00 | 57 | 1002.7 |
| 20260505062017 | 58 | 318 | 2.0 | 5.0 | 0.00 | 0.64 | 0.00 | 56 | 1002.5 |
| 20260505061118 | 58 | 323 | 2.0 | 4.0 | 0.00 | 0.64 | 0.00 | 56 | 1002.5 |
| 20260505060017 | 59 | 318 | 2.0 | 5.0 | 0.00 | 0.64 | 0.00 | 58 | 1002.7 |
| 20260505055020 | 59 | 319 | 2.0 | 6.0 | 0.00 | 0.64 | 0.00 | 59 | 1002.7 |
| 20260505054021 | 59 | 314 | 3.0 | 8.0 | 0.00 | 0.64 | 0.00 | 64 | 1002.6 |
| 20260505053018 | 59 | 309 | 2.0 | 5.0 | 0.00 | 0.64 | 0.00 | 71 | 1002.9 |
| 20260505052021 | 59 | 306 | 3.0 | 6.0 | 0.00 | 0.64 | 0.00 | 75 | 1002.8 |
| 20260505051021 | 60 | 308 | 3.0 | 6.0 | 0.00 | 0.64 | 0.00 | 77 | 1002.5 |
| 20260505041019 | 59 | 309 | 1.0 | 3.0 | 0.00 | 0.64 | 0.64 | 87 | 1001.9 |
| 20260505040019 | 59 | 306 | 1.0 | 2.0 | 0.00 | 0.64 | 0.64 | 87 | 1001.8 |
| 20260505035020 | 59 | 304 | 1.0 | 4.0 | 0.00 | 0.64 | 0.64 | 87 | 1001.9 |
| 20260505034039 | 59 | 284 | 1.0 | 3.0 | 0.00 | 0.64 | 0.64 | 87 | 1001.9 |
| 20260505033019 | 59 | 273 | 1.0 | 3.0 | 0.00 | 0.64 | 0.64 | 86 | 1001.9 |
| 20260505032040 | 60 | 278 | 1.0 | 3.0 | 0.00 | 0.64 | 0.64 | 86 | 1001.8 |
| 20260505031020 | 60 | 269 | 1.0 | 3.0 | 0.00 | 0.64 | 0.64 | 85 | 1001.6 |
| 20260505030020 | 60 | 292 | 1.0 | 5.0 | 0.01 | 0.64 | 0.64 | 83 | 1001.5 |
| 20260505025020 | 60 | 277 | 0.0 | 2.0 | 0.04 | 0.64 | 0.64 | 82 | 1001.3 |
| 20260505024020 | 59 | 101 | 0.0 | 1.0 | 0.07 | 0.64 | 0.64 | 84 | 1001.1 |
| 20260505023021 | 59 | 331 | 0.0 | 3.0 | 0.10 | 0.64 | 0.64 | 87 | 1001.2 |
| 20260505022020 | 59 | 212 | 0.0 | 1.0 | 0.15 | 0.64 | 0.64 | 88 | 1001.4 |
| 20260505021021 | 59 | 0 | 0.0 | 2.0 | 0.16 | 0.64 | 0.64 | 87 | 1001.2 |
| 20260505020021 | 59 | 226 | 1.0 | 4.0 | 0.19 | 0.63 | 0.63 | 87 | 1000.6 |
| 20260505015021 | 60 | 136 | 1.0 | 2.0 | 0.17 | 0.60 | 0.60 | 84 | 1000.6 |
| 20260505014022 | 59 | 286 | 2.0 | 4.0 | 0.14 | 0.57 | 0.57 | 84 | 1000.9 |
| 20260505013019 | 58 | 281 | 3.0 | 7.0 | 0.13 | 0.54 | 0.54 | 88 | 1001.3 |
| 20260505012016 | 59 | 300 | 6.0 | 11.0 | 0.16 | 0.49 | 0.49 | 87 | 1001.7 |
| 20260505011016 | 60 | 292 | 6.0 | 10.0 | 0.31 | 0.48 | 0.48 | 89 | 1002.0 |
| 20260505010022 | 60 | 282 | 1.0 | 4.0 | 0.29 | 0.44 | 0.44 | 84 | 1001.1 |
| 20260505005022 | 60 | 261 | 1.0 | 2.0 | 0.29 | 0.43 | 0.43 | 85 | 1000.3 |
| 20260505004022 | 62 | 246 | 1.0 | 5.0 | 0.33 | 0.42 | 0.42 | 81 | 1000.5 |
| 20260505003022 | 62 | 243 | 0.0 | 2.0 | 0.32 | 0.42 | 0.42 | 82 | 999.9 |
| 20260505002016 | 64 | 299 | 2.0 | 11.0 | 0.24 | 0.33 | 0.33 | 77 | 999.8 |
| 20260505001020 | 65 | 306 | 6.0 | 9.0 | 0.07 | 0.16 | 0.16 | 81 | 1000.3 |
| 20260505000020 | 67 | 304 | 5.0 | 9.0 | 0.06 | 0.15 | 0.15 | 75 | 999.9 |
| 20260504235017 | 68 | 288 | 4.0 | 9.0 | 0.06 | 0.14 | 0.14 | 73 | 998.9 |
| 20260504234018 | 68 | 280 | 1.0 | 5.0 | 0.02 | 0.10 | 0.10 | 71 | 998.6 |
| 20260504233018 | 68 | 258 | 3.0 | 7.0 | 0.02 | 0.09 | 0.09 | 74 | 998.7 |
| 20260504232018 | 70 | 281 | 3.0 | 7.0 | 0.09 | 0.09 | 0.09 | 69 | 998.9 |
| 20260504231018 | 71 | 279 | 2.0 | 6.0 | 0.09 | 0.09 | 0.09 | 67 | 998.9 |
| 20260504230015 | 72 | 277 | 2.0 | 6.0 | 0.09 | 0.09 | 0.09 | 66 | 998.7 |
| 20260504225015 | 72 | 278 | 3.0 | 9.0 | 0.07 | 0.07 | 0.07 | 62 | 999.0 |
| 20260504224016 | 73 | 303 | 2.0 | 5.0 | 0.07 | 0.07 | 0.07 | 63 | 999.1 |
| 20260504223036 | 76 | 303 | 4.0 | 7.0 | 0.07 | 0.07 | 0.07 | 55 | 999.2 |
| 20260504222017 | 76 | 281 | 3.0 | 11.0 | 0.00 | 0.00 | 0.00 | 51 | 998.9 |
| 20260504221016 | 77 | 277 | 3.0 | 7.0 | 0.00 | 0.00 | 0.00 | 49 | 999.0 |
| 20260504220057 | 77 | 260 | 2.0 | 6.0 | 0.00 | 0.00 | 0.00 | 48 | 999.0 |
| 20260504215017 | 77 | 265 | 3.0 | 7.0 | 0.00 | 0.00 | 0.00 | 46 | 999.0 |
| 20260504214017 | 78 | 263 | 5.0 | 10.0 | 0.00 | 0.00 | 0.00 | 44 | 999.1 |
| 20260504213017 | 79 | 269 | 3.0 | 7.0 | 0.00 | 0.00 | 0.00 | 46 | 999.1 |
| 20260504212018 | 81 | 260 | 4.0 | 10.0 | 0.00 | 0.00 | 0.00 | 45 | 999.2 |
| 20260504211017 | 80 | 268 | 4.0 | 9.0 | 0.00 | 0.00 | 0.00 | 45 | 999.5 |
| 20260504210018 | 80 | 260 | 3.0 | 8.0 | 0.00 | 0.00 | 0.00 | 45 | 999.6 |
| 20260504205018 | 82 | 269 | 4.0 | 11.0 | 0.00 | 0.00 | 0.00 | 45 | 999.7 |
| 20260504204018 | 82 | 282 | 5.0 | 16.0 | 0.00 | 0.00 | 0.00 | 41 | 999.7 |
| 20260504203018 | 81 | 280 | 3.0 | 8.0 | 0.00 | 0.00 | 0.00 | 41 | 999.7 |
| 20260504202018 | 82 | 293 | 5.0 | 9.0 | 0.00 | 0.00 | 0.00 | 39 | 999.9 |
| 20260504201018 | 81 | 291 | 5.0 | 11.0 | 0.00 | 0.00 | 0.00 | 39 | 1000.0 |
| 20260504200035 | 81 | 291 | 6.0 | 11.0 | 0.00 | 0.00 | 0.00 | 39 | 1000.1 |
| 20260504195016 | 81 | 299 | 6.0 | 13.0 | 0.00 | 0.00 | 0.00 | 36 | 1000.2 |
| 20260504194036 | 81 | 295 | 6.0 | 10.0 | 0.00 | 0.00 | 0.00 | 37 | 1000.3 |
| 20260504193017 | 80 | 296 | 7.0 | 13.0 | 0.00 | 0.00 | 0.00 | 38 | 1000.4 |
| 20260504192016 | 81 | 293 | 6.0 | 10.0 | 0.00 | 0.00 | 0.00 | 38 | 1000.4 |
| 20260504191037 | 80 | 288 | 6.0 | 11.0 | 0.00 | 0.00 | 0.00 | 39 | 1000.5 |
| 20260504190017 | 80 | 297 | 8.0 | 14.0 | 0.00 | 0.00 | 0.00 | 39 | 1000.5 |
| 20260504185017 | 79 | 286 | 5.0 | 10.0 | 0.00 | 0.00 | 0.00 | 41 | 1000.6 |
| 20260504184017 | 79 | 289 | 5.0 | 12.0 | 0.00 | 0.00 | 0.00 | 42 | 1000.7 |
| 20260504183017 | 79 | 285 | 5.0 | 10.0 | 0.00 | 0.00 | 0.00 | 43 | 1000.8 |
| 20260504182037 | 80 | 271 | 3.0 | 9.0 | 0.00 | 0.00 | 0.00 | 43 | 1000.9 |
| 20260504181018 | 79 | 291 | 6.0 | 11.0 | 0.00 | 0.00 | 0.00 | 41 | 1001.0 |
| 20260504180017 | 79 | 287 | 3.0 | 8.0 | 0.00 | 0.00 | 0.00 | 44 | 1001.1 |
| 20260504175018 | 78 | 295 | 5.0 | 10.0 | 0.00 | 0.00 | 0.00 | 44 | 1001.1 |
| 20260504174018 | 78 | 263 | 3.0 | 7.0 | 0.00 | 0.00 | 0.00 | 46 | 1001.2 |
| 20260504173019 | 77 | 290 | 3.0 | 8.0 | 0.00 | 0.00 | 0.00 | 47 | 1001.4 |
| 20260504172019 | 76 | 288 | 4.0 | 12.0 | 0.00 | 0.00 | 0.00 | 48 | 1001.6 |
| 20260504171016 | 76 | 256 | 2.0 | 11.0 | 0.00 | 0.00 | 0.00 | 49 | 1001.7 |